ECHO 1 DEB (METAL OBJ), 51

Orbit data source: Space-Track

ECHO 1 DEB (METAL OBJ), 51 is space debris in LEO originally from a launch on Fri, 12 Aug 1960 UTC launched from the Air Force Eastern Test Range (AFETR). Debris objects in space refer to the collection of defunct objects orbiting the Earth. Examples of debris include non-operational satellites, rocket bodies, and fragments generated from explosions, collisions, or faulty payload assembly.

Loading next visibility...
Identifier
51, 1960-009C
Orbit
LEO
Country
Flag of USUS
Related business
Manufacturer
Kaiser-Fleetwings
Mission
Spacecraft
Bus & Motor
ECHO CANISTER, Unknown motor
Mass
5 kg wet, 5 kg dry
Launch date (UTC)
1960-08-12 (65 years ago)
Launch vehicle
Unknown
Launch site
Air Force Eastern Test Range (AFETR)
Object type
Payload
Rocket body
Debris
Shape & HBR
Unknown shape, 1.0 m
Radar Cross Section
Medium (>0.1 m² and <1 m²)

Expand to show TLE details & history
Last TLE update: 11 hours ago

TLE from 11 hours ago
0 ECHO 1 DEB (METAL OBJ)
1 00051U 60009C   25293.78249181 -.00000010  00000-0  72047-3 0  9997
2 00051  47.2132  70.1588 0109667 203.6689 155.9030 12.18371779901985
Epoch: 2025-10-20T18:46Z
TLE epoch observation values (Epoch: 2025-10-20T18:46:47.292Z)
Latitude
0.00001°
Longitude
118.9819°
Altitude
1,679.871 km
Speed
7 km/s
True Right ascension
04h 40m 38s
True Declination
0° 00' 00"
Sunlit
Object was in full shadow at epoch
Visualization orbit readout
Latitude
Unknown
Longitude
Unknown
Altitude
Unknown
Speed
Unknown
Apparent Right ascension
Unknown
Apparent Declination
Unknown
Sunlit
N/A
Visualization observer readout
Local Sidereal Time
01:09:07
Azimuth
Unknown
Elevation
Unknown
Doppler factor
Unknown
Orbital elements
Apogee altitude
1,688.208 km
Perigee altitude
1,513.205 km
Semi-major axis
7,978.844 km
Eccentricity
0.01097
Inclination
47.2132°
RAAN
70.1588°
Arg. of periapsis
203.6689°
True anomaly
156.40973°
Mean anomaly
155.903°
Eccentric anomaly
156.157°
Mean motion
3.04532 °/min
Orbital period
118.21 mins
BSTAR
0.00072047
Loading maneuver chart data...
Computing Atmospheric mass density...
Loading historical data...
Loading historical data...
Loading historical data...
Loading historical data...
Loading historical data...
Loading historical data...
Loading historical data...
Other satellites on launch #9 in the year 1960 (1960-08-12 UTC)

Documentation

Showing up to 5 results
|